CW8198 Weather Reports


time (UTC)temp
C
wind
direction
speed
KPH
gust
KPH
rain 1hr
cm
rain 24hr
cm
rain mn
cm
humidity
%
barometer
mb
20260504005529 21 205 1.6 3.2 0.00 0.00 0.00 37 1007.8
20260504004029 21 309 1.6 4.8 0.00 0.00 0.00 36 1007.9
20260504003528 21 265 1.6 6.4 0.00 0.00 0.00 36 1007.9
20260504003028 22 340 3.2 8.0 0.00 0.00 0.00 35 1007.9
20260504002528 22 325 1.6 8.0 0.00 0.00 0.00 35 1008.0
20260504002027 22 341 1.6 4.8 0.00 0.00 0.00 31 1008.0
20260504001528 23 9 3.2 8.0 0.00 0.00 0.00 32 1008.0
20260504001027 23 291 4.8 14.5 0.00 0.00 0.00 32 1008.1
20260504000528 23 282 1.6 14.5 0.00 0.00 0.00 35 1008.0
20260504000026 23 259 4.8 11.3 0.00 0.00 0.00 32 1008.1
20260503234525 24 245 3.2 12.9 0.00 0.00 0.00 32 1008.1
20260503234025 24 273 3.2 12.9 0.00 0.00 0.00 33 1008.1
20260503233524 25 291 4.8 16.1 0.00 0.00 0.00 31 1008.2
20260503233025 25 296 8.0 16.1 0.00 0.00 0.00 30 1008.2
20260503232026 25 325 3.2 11.3 0.00 0.00 0.00 32 1008.2
20260503231523 25 295 3.2 14.5 0.00 0.00 0.00 31 1008.2
20260503231023 25 342 4.8 14.5 0.00 0.00 0.00 32 1008.2
20260503230022 26 72 1.6 11.3 0.00 0.00 0.00 24 1008.3
20260503225522 27 282 3.2 12.9 0.00 0.00 0.00 32 1008.3
20260503225022 26 317 3.2 12.9 0.00 0.00 0.00 31 1008.3
20260503224522 26 295 3.2 12.9 0.00 0.00 0.00 30 1008.3
20260503224022 26 315 4.8 17.7 0.00 0.00 0.00 30 1008.3
20260503223021 27 247 4.8 11.3 0.00 0.00 0.00 29 1008.3
20260503222023 26 325 3.2 16.1 0.00 0.00 0.00 29 1008.4
20260503220520 25 312 4.8 20.9 0.00 0.00 0.00 31 1008.5
20260503220018 25 348 4.8 17.7 0.00 0.00 0.00 31 1008.5
20260503215519 25 259 3.2 11.3 0.00 0.00 0.00 35 1008.6
20260503215019 25 238 3.2 12.9 0.00 0.00 0.00 31 1008.6
20260503214018 25 325 4.8 16.1 0.00 0.00 0.00 33 1008.8
20260503213518 25 249 9.7 16.1 0.00 0.00 0.00 27 1008.8
20260503213018 25 272 3.2 14.5 0.00 0.00 0.00 30 1008.7
20260503212517 25 97 4.8 22.5 0.00 0.00 0.00 28 1008.9
20260503212019 26 28 11.3 22.5 0.00 0.00 0.00 30 1009.0
20260503211517 26 298 8.0 14.5 0.00 0.00 0.00 32 1009.1
20260503211017 26 300 4.8 14.5 0.00 0.00 0.00 32 1009.1
20260503210517 25 319 3.2 14.5 0.00 0.00 0.00 30 1009.3
20260503210017 25 338 4.8 14.5 0.00 0.00 0.00 37 1009.4
20260503205517 24 265 1.6 19.3 0.00 0.00 0.00 30 1009.5
20260503205017 24 309 4.8 19.3 0.00 0.00 0.00 34 1009.5
20260503204516 24 346 9.7 19.3 0.00 0.00 0.00 34 1009.6
20260503204016 25 26 3.2 14.5 0.00 0.00 0.00 29 1009.6
20260503203515 25 225 6.4 14.5 0.00 0.00 0.00 30 1009.6
20260503203016 25 282 3.2 9.7 0.00 0.00 0.00 33 1009.7
20260503202516 25 76 3.2 19.3 0.00 0.00 0.00 38 1009.8
20260503202017 25 265 4.8 19.3 0.00 0.00 0.00 36 1010.0
20260503201514 25 309 3.2 16.1 0.00 0.00 0.00 36 1009.9
20260503201014 25 51 3.2 22.5 0.00 0.00 0.00 39 1010.2
20260503200509 25 321 8.0 25.7 0.00 0.00 0.00 30 1010.2
20260503195009 23 286 4.8 20.9 0.00 0.00 0.00 37 1010.3
20260503194509 23 348 4.8 20.9 0.00 0.00 0.00 39 1010.4
20260503194008 23 51 9.7 20.9 0.00 0.00 0.00 40 1010.5
20260503193508 22 319 6.4 17.7 0.00 0.00 0.00 38 1010.4
20260503193008 23 344 6.4 22.5 0.00 0.00 0.00 35 1010.4
20260503192508 23 331 11.3 22.5 0.00 0.00 0.00 35 1010.5
20260503191509 24 17 12.9 25.7 0.00 0.00 0.00 35 1010.6
20260503191007 24 29 8.0 17.7 0.00 0.00 0.00 35 1010.7
20260503190507 24 19 4.8 16.1 0.00 0.00 0.00 40 1010.7
20260503190008 23 15 9.7 20.9 0.00 0.00 0.00 34 1010.7
20260503185506 23 265 6.4 20.9 0.00 0.00 0.00 41 1010.8
20260503184507 23 48 11.3 32.2 0.00 0.00 0.00 33 1011.1
20260503184006 23 341 11.3 32.2 0.00 0.00 0.00 36 1011.1
20260503183506 23 340 6.4 22.5 0.00 0.00 0.00 38 1011.1
20260503183005 23 296 9.7 22.5 0.00 0.00 0.00 37 1011.1
20260503182506 23 317 8.0 19.3 0.00 0.00 0.00 36 1011.0
20260503182006 23 312 8.0 24.1 0.00 0.00 0.00 36 1011.2
20260503181507 22 342 12.9 24.1 0.00 0.00 0.00 37 1011.1
20260503181005 22 342 8.0 20.9 0.00 0.00 0.00 36 1011.2
20260503180504 23 336 8.0 22.5 0.00 0.00 0.00 37 1011.3
20260503180005 23 17 8.0 22.5 0.00 0.00 0.00 36 1011.3
20260503175504 22 342 6.4 19.3 0.00 0.00 0.00 41 1011.4
20260503175004 22 329 8.0 20.9 0.00 0.00 0.00 41 1011.5
20260503174503 22 339 9.7 20.9 0.00 0.00 0.00 36 1011.6
20260503174002 22 9 9.7 22.5 0.00 0.00 0.00 37 1011.6
20260503173502 22 9 9.7 22.5 0.00 0.00 0.00 39 1011.7
20260503173002 22 293 11.3 20.9 0.00 0.00 0.00 34 1011.7
20260503172502 22 265 8.0 27.4 0.00 0.00 0.00 38 1011.7
20260503172002 22 338 6.4 27.4 0.00 0.00 0.00 35 1011.7
20260503171002 22 317 14.5 25.7 0.00 0.00 0.00 37 1011.8
20260503150954 18 344 6.4 12.9 0.00 0.00 0.00 52 1011.7
20260503150454 17 282 4.8 16.1 0.00 0.00 0.00 50 1011.6
20260503130947 13 325 3.2 11.3 0.00 0.00 0.00 53 1010.8
20260503130447 13 265 4.8 17.7 0.00 0.00 0.00 53 1010.9
20260503090428 13 153 14.5 24.1 0.00 0.00 0.00 43 1010.0
20260503081425 13 195 9.7 16.1 0.00 0.00 0.00 43 1010.5
20260503080925 13 221 9.7 16.1 0.00 0.00 0.00 43 1010.4
20260503080424 13 196 4.8 17.7 0.00 0.00 0.00 43 1010.6
20260503072922 13 217 8.0 17.7 0.00 0.00 0.00 46 1010.9
20260503072423 13 250 8.0 17.7 0.00 0.00 0.00 44 1010.8
20260503071922 13 212 6.4 20.9 0.00 0.00 0.00 44 1010.9
20260503070921 13 34 4.8 9.7 0.00 0.00 0.00 43 1010.8
20260503070421 13 164 3.2 12.9 0.00 0.00 0.00 43 1010.9
20260503054916 14 207 8.0 12.9 0.00 0.00 0.00 38 1011.9
20260503054416 14 186 6.4 14.5 0.00 0.00 0.00 38 1011.9
20260503053916 14 187 8.0 16.1 0.00 0.00 0.00 38 1011.9
20260503053416 14 175 6.4 16.1 0.00 0.00 0.00 38 1011.9
20260503052915 13 198 6.4 14.5 0.00 0.00 0.00 40 1012.0
20260503052415 14 175 4.8 14.5 0.00 0.00 0.00 40 1011.9
20260503051914 13 148 6.4 14.5 0.00 0.00 0.00 40 1011.8
20260503051414 13 178 4.8 14.5 0.00 0.00 0.00 40 1011.9
20260503050913 13 210 6.4 14.5 0.00 0.00 0.00 40 1011.8
20260503050413 13 162 4.8 12.9 0.00 0.00 0.00 40 1011.9
20260503045913 13 198 6.4 12.9 0.00 0.00 0.00 40 1012.0
20260503045415 13 178 4.8 14.5 0.00 0.00 0.00 40 1012.1
20260503044913 14 178 6.4 14.5 0.00 0.00 0.00 40 1012.2
20260503043911 14 200 6.4 17.7 0.00 0.00 0.00 39 1012.2
20260503043414 14 162 6.4 17.7 0.00 0.00 0.00 39 1012.2
20260503042912 14 178 6.4 17.7 0.00 0.00 0.00 39 1012.3
20260503042412 14 196 8.0 16.1 0.00 0.00 0.00 39 1012.4
20260503041911 14 184 6.4 14.5 0.00 0.00 0.00 38 1012.5
20260503041411 14 208 8.0 16.1 0.00 0.00 0.00 38 1012.5
20260503035910 15 147 6.4 17.7 0.00 0.00 0.00 37 1012.6
20260503035410 15 165 6.4 17.7 0.00 0.00 0.00 37 1012.8
20260503034910 15 166 6.4 17.7 0.00 0.00 0.00 37 1012.9
20260503034409 15 187 8.0 17.7 0.00 0.00 0.00 37 1012.9
20260503033909 15 178 6.4 17.7 0.00 0.00 0.00 37 1012.9
20260503033410 15 165 9.7 17.7 0.00 0.00 0.00 36 1012.9
20260503032910 15 165 8.0 16.1 0.00 0.00 0.00 36 1013.0
20260503032408 15 148 6.4 17.7 0.00 0.00 0.00 37 1013.1
20260503031908 15 158 6.4 19.3 0.00 0.00 0.00 37 1013.1
20260503031408 15 142 9.7 19.3 0.00 0.00 0.00 37 1013.1
20260503030908 15 175 6.4 14.5 0.00 0.00 0.00 38 1013.4
20260503030407 15 139 4.8 14.5 0.00 0.00 0.00 38 1013.5
20260503025907 15 209 6.4 12.9 0.00 0.00 0.00 38 1013.4
20260503025407 15 191 6.4 11.3 0.00 0.00 0.00 39 1013.6
20260503024906 15 194 6.4 9.7 0.00 0.00 0.00 39 1013.5
20260503024407 15 149 6.4 11.3 0.00 0.00 0.00 40 1013.6
20260503023906 14 155 6.4 11.3 0.00 0.00 0.00 40 1013.6
20260503023408 14 139 6.4 9.7 0.00 0.00 0.00 40 1013.6
20260503022905 14 139 4.8 8.0 0.00 0.00 0.00 40 1013.7
20260503022405 14 129 3.2 9.7 0.00 0.00 0.00 40 1013.7
20260503021905 15 137 4.8 9.7 0.00 0.00 0.00 40 1013.7
20260503021405 15 162 3.2 8.0 0.00 0.00 0.00 40 1013.8
20260503020403 15 119 4.8 6.4 0.00 0.00 0.00 39 1013.9
20260503015905 15 140 3.2 4.8 0.00 0.00 0.00 37 1014.0
20260503015404 16 126 3.2 4.8 0.00 0.00 0.00 36 1014.0
20260503014903 16 119 3.2 4.8 0.00 0.00 0.00 35 1014.0
20260503014402 16 132 3.2 4.8 0.00 0.00 0.00 33 1014.1
20260503013902 17 126 3.2 6.4 0.00 0.00 0.00 33 1014.2
20260503013403 17 123 3.2 8.0 0.00 0.00 0.00 31 1014.2
20260503012903 17 178 3.2 8.0 0.00 0.00 0.00 31 1014.2
20260503012401 17 151 3.2 8.0 0.00 0.00 0.00 30 1014.2
20260503011901 17 196 3.2 8.0 0.00 0.00 0.00 30 1014.2
20260503010900 18 178 3.2 16.1 0.00 0.00 0.00 30 1014.3